Glennallen, AK

9:44 AM AKST on February 27, 2017 (GMT -0900)
Gulkana

Weather History for PAGK - November, 2013

Change the Weather History Date:

Wednesday, November 13, 2013

  Actual Average Record
Temperature  
Mean Temperature 6 °F -  
Max Temperature 12 °F 14 °F 40 °F (1976)
Min Temperature 0 °F 0 °F -38 °F (1989)
Degree Days  
Heating Degree Days 59    
Moisture  
Dew Point 3 °F    
Average Humidity 84    
Maximum Humidity 88    
Minimum Humidity 72    
Precipitation  
Precipitation 0.00 in - - ()
Sea Level Pressure  
Sea Level Pressure 30.28 in    
Wind  
Wind Speed 2 mph (NW)    
Max Wind Speed 7 mph    
Max Gust Speed -    
Visibility 9 miles    
Events Snow    
Averages and records for this station are not official NWS values.
T = Trace of Precipitation, MM = Missing Value Source: NWS Daily Summary

Daily Weather History Graph

Daily Weather History Graph

Search for Another Location

Airport or City:

Trip Planner

Search our weather history database for the weather conditions in past years. The results will help you decide how hot, cold, wet, or windy it might be!

Date:

Astronomy

Nov. 13, 2013 Rise Set
Actual Time 8:50 AM AKST 4:01 PM AKST
Civil Twilight 7:56 AM AKST 4:54 PM AKST
Nautical Twilight 7:00 AM AKST 5:50 PM AKST
Astronomical Twilight 6:08 AM AKST 6:42 PM AKST
Moon 2:54 PM AKST (11/13) 3:44 AM AKST (11/13)
Length of Visible Light 8h 58m
Length of Day
7h 11m
Waxing Gibbous, 86% of the Moon is Illuminated
Nov 13
Waxing Gibbous
Nov 17
Full
Nov 25
Last Quarter
Dec 2
New
Dec 9
First Quarter

Hourly Weather History & Observations

Time (AKST) Temp. Windchill Dew Point Humidity Pressure Visibility Wind Dir Wind Speed Gust Speed Precip Events Conditions
12:53 AM -4.0 °F - -8.0 °F 83% 30.30 in 10.0 mi Calm Calm - N/A   Clear
1:53 AM -2.0 °F -12.2 °F -6.0 °F 83% 30.28 in 10.0 mi NW 4.6 mph - N/A   Scattered Clouds
3:53 AM 1.0 °F -8.7 °F -2.9 °F 83% 30.29 in 10.0 mi North 4.6 mph - N/A   Overcast
4:53 AM 1.9 °F -10.6 °F -2.9 °F 80% 30.31 in 10.0 mi NNW 6.9 mph - N/A   Overcast
5:53 AM 3.0 °F - -0.9 °F 84% 30.30 in 10.0 mi Calm Calm - N/A   Overcast
6:53 AM 3.9 °F - -0.0 °F 84% 30.32 in 10.0 mi Calm Calm - N/A   Overcast
7:53 AM 5.0 °F - 1.9 °F 87% 30.32 in 10.0 mi Calm Calm - N/A   Overcast
8:53 AM 5.0 °F -2.1 °F 1.9 °F 87% 30.35 in 10.0 mi ENE 3.5 mph - N/A   Overcast
9:53 AM 5.0 °F -2.1 °F 1.9 °F 87% 30.36 in 10.0 mi SW 3.5 mph - N/A   Overcast
10:16 AM 6.1 °F - 1.9 °F 83% 30.17 in 10.0 mi Calm Calm - N/A   Overcast
10:26 AM 7.0 °F - 1.9 °F 80% 30.17 in 10.0 mi Calm Calm - N/A   Overcast
10:51 AM 6.8 °F - 3.2 °F 85% 30.17 in 1.8 mi Calm Calm - N/A   Overcast
10:53 AM 7.0 °F - 3.0 °F 84% 30.36 in 1.2 mi Calm Calm - 0.00 in Snow Light Snow
11:02 AM 7.0 °F - 3.9 °F 87% 30.17 in 2.5 mi Calm Calm - 0.00 in Snow Light Snow
11:09 AM 7.0 °F - 3.0 °F 84% 30.17 in 9.0 mi Calm Calm - 0.00 in   Overcast
11:53 AM 8.1 °F - 3.9 °F 83% 30.36 in 10.0 mi Calm Calm - 0.00 in   Mostly Cloudy
12:53 PM 10.0 °F - 5.0 °F 80% 30.36 in 10.0 mi Calm Calm - N/A   Overcast
1:53 PM 10.0 °F - 6.1 °F 84% 30.34 in 10.0 mi Calm Calm - N/A   Overcast
2:53 PM 10.9 °F 4.7 °F 6.1 °F 81% 30.33 in 10.0 mi SE 3.5 mph - N/A   Overcast
3:53 PM 10.9 °F - 7.0 °F 84% 30.32 in 10.0 mi Calm Calm - N/A   Overcast
4:53 PM 12.0 °F - 8.1 °F 84% 30.32 in 10.0 mi Calm Calm - N/A   Overcast
5:53 PM 10.9 °F - 8.1 °F 88% 30.31 in 10.0 mi Calm Calm - N/A   Overcast
6:53 PM 10.9 °F 4.7 °F 8.1 °F 88% 30.27 in 10.0 mi SSW 3.5 mph - N/A   Overcast
7:53 PM 12.9 °F - 8.1 °F 81% 30.27 in 10.0 mi Calm Calm - N/A   Overcast
8:53 PM 12.0 °F - 9.0 °F 88% 30.25 in 10.0 mi Calm Calm - N/A   Overcast
9:53 PM 12.0 °F - 9.0 °F 88% 30.23 in 10.0 mi Calm Calm - N/A   Overcast
10:53 PM 9.0 °F -0.9 °F 6.1 °F 88% 30.22 in 10.0 mi West 5.8 mph - N/A   Clear
11:53 PM 9.0 °F - 6.1 °F 88% 30.21 in 10.0 mi Calm Calm - N/A   Clear